Погода в Буденновске

Погода в Буденновске : погода сейчас, прогноз погоды и архив. Всё, что Вы хотите узнать о погоде в Буденновске!

Хотите узнать прогноз погоды в Буденновске? Тогда Вам сюда: Погода в Буденновске

Поиск расширенной информации на нашем сайте:

Другие новости

Новости СМИ2

Главная страница сайта

Новости сайта

03.07.2017

Напоминаем, что на нашем специализированном сайте Метеоцентр.Азия вы можете получить высокодетализированные автоматические прогнозы погоды по пунктам России, СНГ и мира в авиационном формате (включающие направление и скорость ветра, видимость, явления погоды, количество и форму облачности, нижнюю и верхнюю границу облачности).


Погода в Буденновске - сегодня

Время (UTC), дата Ветер
(°,м/с) 
Видим.   Явления Облачность Т
(°С)
Тd
(°С)
f(%) Тe
(°С)
Pmin
(гПа)
dP
(гПа)
Po
(мм)
O2
(г/м3)
Тmin Tmax R s Состояние
почвы
21 17.08.18 030 (СВ) 20000 м    3/3 600 м 
[Sc]
+23.8 +10.1 42 +25  1010.7  746  275           
00 18.08.18 030 (СВ) 20000 м    ясно 
+20.1 +10.2 53 +22  1010.5  -0.4  746  278           
03 18.08.18 320 (СЗ) 10 км    3/3 600 м 
[Cu hum]
+19.7 +9.8 53 +22  1010.6  0.1  746  279  +17.4        сухая 
06 18.08.18 350 (С) 10 км    3/3 600 м 
[Cu hum]
+29.6 +7.8 26 +30  1010.1  746  270           
09 18.08.18 040 (СВ) 10 км    8/3 600 м верхняя 
[Cu hum|Ci fib]
+32.6 +1.8 14 +33  1009.5  -0.5  746  268           
12 18.08.18 050 (СВ) 10 км    9/1 600 м верхняя 
[Cu hum|Ci fib]
+33.5 -1.3 11 +34  1009.3  -0.2  746  268           
15 18.08.18 070 (В) 10 км    9/1 600 м верхняя 
[Sc|Ci fib]
+31.3 +0.1 13 +31  1009.7  0.3  746  270    +33.6       
18 18.08.18 220 (ЮЗ) 20000 м    6/1 600 м верхняя 
[Sc|Ci fib]
+23.4 +8.6 39 +23  1011.3  1.2  747  276           
21 18.08.18 040 (СВ) 20000 м    ясно 
+22.8 +11.5 49 +26  1012.2  0.9  748  276           
00 19.08.18 030 (СВ) 20000 м    ясно 
+20.4 +9.1 48 +20  1012.9  0.5  748  279           
03 19.08.18 050 (СВ) 10 км    4/4 600 м 
[Sc]
+19.1 +3.1 35 +20  1014.9  1.8  749  282  +18.7        сухая 
06 19.08.18 040 (СВ) 10 км    3/3 600 м 
[Cu hum]
+23.2 +3.9 28 +23  1015.5  0.9  750  278           
09 19.08.18 020 (С) 10 км    ясно 
+26.1 +3.7 24 +26  1014.8  -0.6  749  275           
12 19.08.18 060 (СВ) 10 км    ясно 
+27.7 +2.3 19 +28  1014.5  -0.2  749  274           
15 19.08.18 050 (СВ) 10 км    ясно 
+26 -1 17 +26  1015.8  1.2  750  276    +28       
18 19.08.18 070 (В) 20000 м    ясно 
+20.4 -0.7 24 +20  1017.4  1.3  751  282           
21 19.08.18 070 (В) 20000 м    ясно 
+17.4 +0.3 31 +18  1017.6  -0.1  751  285           
00 20.08.18 050 (СВ) 20000 м    ясно 
+15.9 +2.3 40 +17  1017.9  0.2  751  286           
03 20.08.18 060 (СВ) 10 км    ясно 
+13.9 +2.6 46 +15  1018.8  0.7  752  288  +13.6        сухая 
06 20.08.18 070 (В) 10 км    ясно 
+22.6 +2 26 +23  1018.4  0.7  752  280           
09 20.08.18 090 (В) 4{10}  10 км    ясно 
+26.3 -1.2 16 +26  1017.2  -1  751  276           
12 20.08.18 080 (В) 5{11}  10 км    ясно 
+27.6 -2.6 14 +28  1016  -1.2  750  275           
15 20.08.18 090 (В) 4{10}  10 км    ясно 
+26.9 +1.2 19 +27  1015.3  -1.2  750  275    +27.9       
18 20.08.18 090 (В) 4{10}  20000 м    ясно 
+21.8 +4.7 33 +22  1016.8  1.2  751  279           
21 20.08.18 090 (В) 20000 м    ясно 
+18.6 +9.9 57 +20  1016.9  0.1  751  281           
Время (UTC), дата Ветер
(°,м/с) 
Видим.   Явления Облачность Т
(°С)
Тd
(°С)
f(%) Тe
(°С)
Pmin
(гПа)
dP
(гПа)
Po
(мм)
O2
(г/м3)
Тmin Tmax R s Состояние
почвы

Для получения пояснительной информации подведите курсор к названию столбца.

ПОГОДА в Буденновске - архив

Всё, что Вы хотите узнать о погоде в Буденновске - удобно и подробно!

Выберите нужную дату (начиная с 1 января 2015* года) и нажмите кнопку "Найти".
Будут отображены архивные сводки погоды по пункту Буденновск, начиная с указанной даты.


Отображать данные в формате CSV (для использования в таблицах Excel)


Внимание! Наш архив погоды предназначен исключительно для личного некоммерческого использования в познавательных целях. Если Вам необходимы официальные справки о состоянии погоды (для производственных, юридических, коммерческих и т.п. целей), обращайтесь в органы Росгидромета.

*Примечание: данная дата относится к архиву по метеостанциям СССР (Россия, СНГ, Балтия).
Архив по метеостанциям Зарубежной Европы и Азии (кроме Китая) хранится 10 дней, по другим регионам земного шара (Китай, Африка, Америка, Австралия, Океания) - 1 день.

Буденновск - район местоположения метеостанции


Название, широта, долгота, высота метеостанции:
Буденновск (Прикумск) 44.8°ш. 44.1°д. 136 м над ур. моря [Российская Федерация]

Дополнительная информация

В oтличие oт бoльшинства пoгoдных сайтoв мы публикуем пoдрoбную метеoинфoрмацию в детальнoм прoфессиoнальнoм фoрмате.

Характеристики температуры и влажнoсти вoздуха измеряются на высoте 2 м в тени вдали oт зданий и деревьев.
Скoрoсть ветра измеряется на высoте 10 м (на урoвне рoста челoвека скoрoсть ветра ниже в 1.5-2 раза). Если метеoстанция нахoдится в гoрoде или в лесу, тo скoрoсть ветра занижена на 2-4 м/с пo сравнению с oткрытым местoм. Скoрoсть ветра над акватoриями крупных рек и oзёр, а также на вершинах хoлмoв на 2-5 м/с выше, чем в oбычных услoвиях.
Атмoсфернoе давление в разных тoчках местнoсти мoжет значительнo oтличаться oт давления на метеoстанции, в зависимoсти oт услoвий рельефа (при пoдъёме на 10 м давление пoнижается примернo на 1 мм рт.ст.).